When you browse on this site, cookies collect data to enhance your experience and personalize the content and advertising you see.
Visit our Privacy Policy to learn more. By continuing to use the site, you agree to this use of cookies and data.
  • In Switzerland
  • List of Countries
  • For 7 days
  • Water Temperature
  • Weather Map
  • Weather Widgets
  • user-avatar
    Login

    Hourly Weather Bruges

    Today, 29 February, Saturday

    Time Temperature Precipitation Wind Pressure Humidity
    00:00 +8°C° 0 mm 9 mps 748 mmHg 85%
    01:00 +8°C° 0 mm 9 mps 747 mmHg 83%
    02:00 +8°C° 0 mm 9 mps 747 mmHg 81%
    03:00 +7°C° 0 mm 10 mps 746 mmHg 79%
    04:00 +7°C° 0 mm 9 mps 745 mmHg 80%
    05:00 +6°C° 0 mm 9 mps 744 mmHg 80%
    06:00 +6°C° 0 mm 9 mps 743 mmHg 80%
    07:00 +7°C° 0 mm 10 mps 741 mmHg 77%
    08:00 +7°C° 0 mm 11 mps 740 mmHg 75%
    09:00 +8°C° 0 mm 12 mps 738 mmHg 72%
    10:00 +7°C° 0.8 mm 12 mps 739 mmHg 74%
    11:00 +6°C° 0.8 mm 11 mps 739 mmHg 77%
    12:00 +4°C° 0.8 mm 11 mps 739 mmHg 79%
    13:00 +4°C° 0 mm 11 mps 740 mmHg 70%
    14:00 +5°C° 0 mm 12 mps 741 mmHg 61%
    15:00 +5°C° 0 mm 12 mps 742 mmHg 53%
    16:00 +4°C° 0.1 mm 12 mps 742 mmHg 58%
    17:00 +4°C° 0.1 mm 11 mps 742 mmHg 63%
    18:00 +3°C° 0.1 mm 10 mps 743 mmHg 68%
    19:00 +3°C° 0.3 mm 10 mps 743 mmHg 71%
    20:00 +2°C° 0.3 mm 10 mps 743 mmHg 74%
    21:00 +2°C° 0.3 mm 10 mps 743 mmHg 77%
    22:00 +2°C° 0.3 mm 10 mps 743 mmHg 78%
    23:00 +2°C° 0.3 mm 11 mps 743 mmHg 80%

    Tomorrow, 1 March, Sunday

    Time Temperature Precipitation Wind Pressure Humidity
    00:00 +2°C° 0.3 mm 11 mps 743 mmHg 81%
    01:00 +2°C° 0.1 mm 11 mps 743 mmHg 82%
    02:00 +2°C° 0.1 mm 11 mps 742 mmHg 82%
    03:00 +2°C° 0.1 mm 11 mps 742 mmHg 83%
    04:00 +2°C° 0.3 mm 11 mps 743 mmHg 82%
    05:00 +2°C° 0.3 mm 11 mps 743 mmHg 82%
    06:00 +2°C° 0.3 mm 10 mps 743 mmHg 81%
    07:00 +2°C° 0.3 mm 11 mps 743 mmHg 81%
    08:00 +2°C° 0.3 mm 11 mps 743 mmHg 81%
    09:00 +2°C° 0.3 mm 11 mps 744 mmHg 80%
    10:00 +3°C° 0.4 mm 10 mps 743 mmHg 80%
    11:00 +3°C° 0.4 mm 10 mps 743 mmHg 80%
    12:00 +3°C° 0.4 mm 10 mps 743 mmHg 79%
    13:00 +5°C° 0.2 mm 9 mps 743 mmHg 75%
    14:00 +6°C° 0.2 mm 8 mps 742 mmHg 70%
    15:00 +7°C° 0.2 mm 8 mps 742 mmHg 66%
    16:00 +6°C° 0.2 mm 7 mps 741 mmHg 73%
    17:00 +6°C° 0.2 mm 5 mps 741 mmHg 80%
    18:00 +5°C° 0.2 mm 4 mps 740 mmHg 87%
    19:00 +5°C° 0.1 mm 4 mps 740 mmHg 87%
    20:00 +3°C° 0.1 mm 5 mps 741 mmHg 86%
    21:00 +3°C° 0.1 mm 6 mps 741 mmHg 86%
    22:00 +3°C° 0 mm 6 mps 741 mmHg 86%
    23:00 +2°C° 0 mm 5 mps 741 mmHg 85%

    Day after tomorrow, 2 March, Monday

    Time Temperature Precipitation Wind Pressure Humidity
    00:00 +2°C° 0 mm 5 mps 741 mmHg 85%
    01:00 +2°C° 0 mm 6 mps 740 mmHg 85%
    02:00 +2°C° 0 mm 7 mps 739 mmHg 86%
    03:00 +2°C° 0 mm 7 mps 739 mmHg 86%
    04:00 +2°C° 0.4 mm 7 mps 738 mmHg 87%
    05:00 +2°C° 0.4 mm 8 mps 737 mmHg 88%
    06:00 +2°C° 0.4 mm 8 mps 736 mmHg 89%
    07:00 +4°C° 0.5 mm 8 mps 736 mmHg 86%
    08:00 +4°C° 0.5 mm 8 mps 735 mmHg 83%
    09:00 +5°C° 0.5 mm 8 mps 735 mmHg 79%
    10:00 +3°C° 0.5 mm 9 mps 736 mmHg 82%
    11:00 +3°C° 0.5 mm 9 mps 736 mmHg 85%
    12:00 +3°C° 0.5 mm 10 mps 737 mmHg 88%
    13:00 +3°C° 0.2 mm 10 mps 737 mmHg 80%
    14:00 +3°C° 0.2 mm 10 mps 738 mmHg 72%
    15:00 +3°C° 0.2 mm 10 mps 739 mmHg 64%
    16:00 +4°C° 0 mm 8 mps 740 mmHg 68%
    17:00 +3°C° 0 mm 7 mps 741 mmHg 71%
    18:00 +2°C° 0 mm 5 mps 742 mmHg 74%
    19:00 +2°C° 0.1 mm 5 mps 743 mmHg 75%
    20:00 +2°C° 0.1 mm 5 mps 743 mmHg 77%
    21:00 +1°C° 0.1 mm 5 mps 744 mmHg 78%
    22:00 +1°C° 0.2 mm 6 mps 744 mmHg 79%
    23:00 +1°C° 0.2 mm 6 mps 745 mmHg 80%

    3 March, Tuesday

    Time Temperature Precipitation Wind Pressure Humidity
    00:00 +1°C° 0.2 mm 6 mps 745 mmHg 81%
    01:00 +1°C° 0 mm 6 mps 746 mmHg 81%
    02:00 -1°C° 0 mm 6 mps 746 mmHg 81%
    03:00 0°C° 0 mm 5 mps 746 mmHg 82%
    04:00 -1°C° 0 mm 6 mps 746 mmHg 83%
    05:00 -1°C° 0 mm 6 mps 747 mmHg 84%
    06:00 -1°C° 0 mm 6 mps 747 mmHg 85%
    07:00 +1°C° 0 mm 6 mps 747 mmHg 84%
    08:00 +2°C° 0 mm 6 mps 748 mmHg 84%
    09:00 +3°C° 0 mm 6 mps 748 mmHg 83%
    10:00 +4°C° 0.2 mm 6 mps 749 mmHg 80%
    11:00 +4°C° 0.2 mm 6 mps 749 mmHg 76%
    12:00 +5°C° 0.2 mm 7 mps 750 mmHg 73%
    13:00 +5°C° 0 mm 7 mps 750 mmHg 69%
    14:00 +5°C° 0 mm 7 mps 750 mmHg 65%
    15:00 +5°C° 0 mm 7 mps 751 mmHg 61%
    16:00 +4°C° 0 mm 6 mps 751 mmHg 64%
    17:00 +5°C° 0 mm 4 mps 751 mmHg 68%
    18:00 +4°C° 0 mm 3 mps 752 mmHg 72%
    19:00 +3°C° 0 mm 3 mps 752 mmHg 76%
    20:00 +3°C° 0 mm 3 mps 752 mmHg 80%
    21:00 +2°C° 0 mm 3 mps 753 mmHg 84%
    22:00 +2°C° 0 mm 3 mps 753 mmHg 86%
    23:00 +2°C° 0 mm 3 mps 753 mmHg 88%

    4 March, Wednesday

    Time Temperature Precipitation Wind Pressure Humidity
    00:00 +2°C° 0 mm 3 mps 753 mmHg 91%
    01:00 +2°C° 0 mm 3 mps 753 mmHg 91%
    02:00 +2°C° 0 mm 3 mps 753 mmHg 91%
    03:00 +1°C° 0 mm 4 mps 753 mmHg 92%
    04:00 +1°C° 0.1 mm 4 mps 753 mmHg 91%
    05:00 +1°C° 0.1 mm 4 mps 753 mmHg 91%
    06:00 +1°C° 0.1 mm 4 mps 753 mmHg 90%
    07:00 +3°C° 0.1 mm 4 mps 754 mmHg 86%
    08:00 +4°C° 0.1 mm 4 mps 754 mmHg 82%
    09:00 +5°C° 0.1 mm 4 mps 754 mmHg 78%
    10:00 +5°C° 0 mm 4 mps 754 mmHg 72%
    11:00 +6°C° 0 mm 5 mps 754 mmHg 67%
    12:00 +7°C° 0 mm 5 mps 755 mmHg 62%
    13:00 +7°C° 0 mm 5 mps 754 mmHg 62%
    14:00 +7°C° 0 mm 4 mps 754 mmHg 62%
    15:00 +7°C° 0 mm 4 mps 754 mmHg 61%
    16:00 +5°C° 0 mm 4 mps 754 mmHg 65%
    17:00 +4°C° 0 mm 3 mps 754 mmHg 69%
    18:00 +4°C° 0 mm 2 mps 755 mmHg 73%
    19:00 +4°C° 0 mm 2 mps 754 mmHg 74%
    20:00 +4°C° 0 mm 2 mps 754 mmHg 75%
    21:00 +3°C° 0 mm 2 mps 754 mmHg 76%
    22:00 +2°C° 0 mm 3 mps 754 mmHg 77%
    23:00 +2°C° 0 mm 3 mps 753 mmHg 78%

    5 March, Thursday

    Time Temperature Precipitation Wind Pressure Humidity
    00:00 +1°C° 0 mm 4 mps 753 mmHg 78%
    01:00 +3°C° 0.2 mm 4 mps 752 mmHg 81%
    02:00 +3°C° 0.2 mm 4 mps 751 mmHg 83%
    03:00 +2°C° 0.2 mm 5 mps 750 mmHg 86%
    04:00 +2°C° 0.6 mm 5 mps 750 mmHg 88%
    05:00 +2°C° 0.6 mm 5 mps 749 mmHg 91%
    06:00 +2°C° 0.6 mm 5 mps 748 mmHg 93%
    07:00 +2°C° 0.5 mm 5 mps 748 mmHg 94%
    08:00 +3°C° 0.5 mm 4 mps 747 mmHg 94%
    09:00 +4°C° 0.5 mm 4 mps 747 mmHg 94%
    10:00 +4°C° 0.1 mm 3 mps 747 mmHg 93%
    11:00 +4°C° 0.1 mm 3 mps 748 mmHg 91%
    12:00 +5°C° 0.1 mm 3 mps 748 mmHg 89%
    13:00 +5°C° 0 mm 3 mps 748 mmHg 88%
    14:00 +5°C° 0 mm 4 mps 748 mmHg 87%
    15:00 +5°C° 0 mm 4 mps 748 mmHg 86%
    16:00 +5°C° 0 mm 4 mps 749 mmHg 87%
    17:00 +4°C° 0 mm 3 mps 749 mmHg 89%
    18:00 +4°C° 0 mm 3 mps 750 mmHg 90%
    19:00 +4°C° 0 mm 3 mps 750 mmHg 89%
    20:00 +4°C° 0 mm 3 mps 751 mmHg 89%
    21:00 +4°C° 0 mm 3 mps 751 mmHg 89%
    22:00 +5°C° 0 mm 2 mps 751 mmHg 88%
    23:00 +5°C° 0 mm 2 mps 751 mmHg 87%
    Show more